* Astronomy

Members Login
Username 
 
Password 
    Remember Me  
Post Info TOPIC: KBO 2005 QU182


L

Posts: 131433
Date:
Kuiper Belt Object (303775) 2005 QU182
Permalink  
 


KBO (303775) 2005 QU182 is at Opposition (49.789 AU) on the 8th October 2014

Ephemeris

Date    TT    R. A. (2000) Decl.     Delta      r     Elong.  Phase     Mag
2014 10 05    01 13 26.8 -06 10 42  49.7857 50.7597   166.7     0.3    20.6
2014 10 06    01 13 23.0 -06 11 05  49.7866 50.7611   166.9     0.3    20.6
2014 10 07    01 13 19.3 -06 11 27  49.7878 50.7625   167.1     0.3    20.6
2014 10 08    01 13 15.5 -06 11 50  49.7893 50.7639   167.1     0.3    20.6
2014 10 09    01 13 11.7 -06 12 11  49.7911 50.7653   167.1     0.3    20.6
2014 10 10    01 13 08.0 -06 12 33  49.7932 50.7667   167.0     0.3    20.6
2014 10 11    01 13 04.2 -06 12 55  49.7956 50.7680   166.8     0.3    20.6
2014 10 12    01 13 00.4 -06 13 16  49.7983 50.7694   166.5     0.3    20.6
2014 10 13    01 12 56.6 -06 13 36  49.8012 50.7708   166.2     0.3    20.6
2014 10 14    01 12 52.8 -06 13 57  49.8045 50.7722   165.8     0.3    20.6
2014 10 15    01 12 49.0 -06 14 17  49.8081 50.7736   165.4     0.3    20.6
2014 10 16    01 12 45.3 -06 14 37  49.8119 50.7750   164.9     0.3    20.6
2014 10 17    01 12 41.5 -06 14 57  49.8160 50.7764   164.3     0.3    20.6
2014 10 18    01 12 37.7 -06 15 16  49.8205 50.7777   163.7     0.3    20.6
2014 10 19    01 12 33.9 -06 15 35  49.8252 50.7791   163.1     0.3    20.6
2014 10 20    01 12 30.2 -06 15 53  49.8302 50.7805   162.4     0.3    20.6
2014 10 21    01 12 26.4 -06 16 12  49.8355 50.7819   161.7     0.4    20.6
2014 10 22    01 12 22.7 -06 16 29  49.8411 50.7833   161.0     0.4    20.6
2014 10 23    01 12 19.0 -06 16 47  49.8469 50.7847   160.3     0.4    20.6
2014 10 24    01 12 15.3 -06 17 04  49.8531 50.7861   159.5     0.4    20.6
2014 10 25    01 12 11.6 -06 17 21  49.8595 50.7875   158.7     0.4    20.6
2014 10 26    01 12 07.9 -06 17 37  49.8663 50.7888   157.9     0.4    20.6
2014 10 27    01 12 04.2 -06 17 53  49.8733 50.7902   157.1     0.4    20.6
2014 10 28    01 12 00.6 -06 18 08  49.8806 50.7916   156.2     0.5    20.6
2014 10 29    01 11 57.0 -06 18 24  49.8881 50.7930   155.4     0.5    20.6
2014 10 30    01 11 53.4 -06 18 38  49.8960 50.7944   154.5     0.5    20.6
2014 10 31    01 11 49.8 -06 18 52  49.9041 50.7958   153.7     0.5    20.6


__________________


L

Posts: 131433
Date:
Kuiper Belt Object 303775 (2005 QU182)
Permalink  
 


Kuiper Belt Object 303775 (2005 QU182) is at Opposition (49.284 AU) on the 7 October 2013



__________________


L

Posts: 131433
Date:
KBO 2005 QU182
Permalink  
 


Kuiper belt object/Scattered-Disk Object 2005 QU182 was discovered at on the 30th August 2005 by NEAT's Mt. Palomar telescope.

Orbital data

objectclasssemimajor axisorbital periodorbital
eccentricity
orbit inclin.
(km)(AU)(days)(years)()
2005 QU182KBO13,867,900,00092.701326,000892.50.54314

2005 QU182
Epoch 2008 Nov. 30.0 TT = JDT 2454800.5 MPC
M 11.26724 (2000.0) P Q
n 0.00082742 Peri. 224.34301 +0.51916636 +0.82100851
a 112.3708470 Node 78.31362 -0.70113538 +0.56804130
e 0.6711179 Incl. 14.03640 -0.48874887 +0.05721987
P 1190 H 3.2 G 0.15 U 2
MPEC 200826

-- Edited by Blobrana at 12:09, 2008-12-03

__________________
Page 1 of 1  sorted by
Quick Reply

Please log in to post quick replies.



Create your own FREE Forum
Report Abuse
Powered by ActiveBoard